Hourly Weather Chaikyne

Today, 16 June, Wednesday

Time Temperature Precipitation Wind Pressure Humidity
00:00 +17°C° 0.2 mm 3 mps 751 mmHg 94%
01:00 +17°C° 0.2 mm 3 mps 751 mmHg 93%
02:00 +17°C° 0 mm 3 mps 752 mmHg 93%
03:00 +17°C° 0.3 mm 2 mps 752 mmHg 92%
04:00 +16°C° 0.3 mm 2 mps 752 mmHg 91%
05:00 +16°C° 0.3 mm 2 mps 752 mmHg 90%
06:00 +18°C° 0 mm 2 mps 752 mmHg 82%
07:00 +19°C° 0 mm 2 mps 752 mmHg 75%
08:00 +21°C° 0 mm 2 mps 753 mmHg 68%
09:00 +23°C° 0 mm 2 mps 753 mmHg 63%
10:00 +24°C° 0 mm 2 mps 753 mmHg 58%
11:00 +24°C° 0 mm 2 mps 753 mmHg 53%
12:00 +25°C° 0 mm 2 mps 753 mmHg 52%
13:00 +25°C° 0 mm 2 mps 753 mmHg 51%
14:00 +25°C° 0 mm 2 mps 753 mmHg 49%
15:00 +26°C° 0 mm 2 mps 753 mmHg 49%
16:00 +26°C° 0 mm 2 mps 753 mmHg 49%
17:00 +26°C° 0 mm 1 mps 753 mmHg 48%
18:00 +24°C° 0 mm 2 mps 753 mmHg 56%
19:00 +21°C° 0 mm 2 mps 753 mmHg 63%
20:00 +20°C° 0 mm 3 mps 753 mmHg 71%
21:00 +19°C° 0 mm 3 mps 754 mmHg 73%
22:00 +19°C° 0 mm 3 mps 754 mmHg 75%
23:00 +18°C° 0 mm 3 mps 754 mmHg 76%

Tomorrow, 17 June, Thursday

Time Temperature Precipitation Wind Pressure Humidity
00:00 +18°C° 0 mm 3 mps 754 mmHg 79%
01:00 +18°C° 0 mm 3 mps 754 mmHg 81%
02:00 +17°C° 0 mm 3 mps 754 mmHg 83%
03:00 +18°C° 0 mm 3 mps 754 mmHg 82%
04:00 +18°C° 0 mm 3 mps 754 mmHg 82%
05:00 +18°C° 0 mm 3 mps 754 mmHg 82%
06:00 +19°C° 0.1 mm 3 mps 754 mmHg 82%
07:00 +19°C° 0.1 mm 3 mps 754 mmHg 82%
08:00 +20°C° 0.1 mm 3 mps 754 mmHg 82%
09:00 +20°C° 2.5 mm 4 mps 754 mmHg 86%
10:00 +19°C° 2.5 mm 4 mps 754 mmHg 90%
11:00 +19°C° 2.5 mm 5 mps 754 mmHg 94%
12:00 +21°C° 0.9 mm 5 mps 754 mmHg 88%
13:00 +22°C° 0.9 mm 6 mps 754 mmHg 83%
14:00 +24°C° 0.9 mm 7 mps 754 mmHg 77%
15:00 +24°C° 0.8 mm 6 mps 754 mmHg 77%
16:00 +24°C° 0.8 mm 6 mps 754 mmHg 78%
17:00 +23°C° 0.8 mm 6 mps 754 mmHg 79%
18:00 +23°C° 0.4 mm 6 mps 754 mmHg 82%
19:00 +22°C° 0.4 mm 5 mps 755 mmHg 86%
20:00 +21°C° 0.4 mm 5 mps 755 mmHg 89%
21:00 +21°C° 0.2 mm 4 mps 755 mmHg 90%
22:00 +20°C° 0.2 mm 4 mps 755 mmHg 92%
23:00 +20°C° 0.2 mm 4 mps 755 mmHg 93%

Day after tomorrow, 18 June, Friday

Time Temperature Precipitation Wind Pressure Humidity
00:00 +20°C° 0.6 mm 4 mps 755 mmHg 94%
01:00 +20°C° 0.6 mm 4 mps 755 mmHg 95%
02:00 +20°C° 0.6 mm 4 mps 755 mmHg 95%
03:00 +20°C° 0.2 mm 5 mps 755 mmHg 93%
04:00 +19°C° 0.2 mm 5 mps 755 mmHg 91%
05:00 +19°C° 0.2 mm 6 mps 755 mmHg 88%
06:00 +20°C° 0 mm 7 mps 755 mmHg 86%
07:00 +21°C° 0 mm 8 mps 755 mmHg 83%
08:00 +22°C° 0 mm 9 mps 755 mmHg 80%
09:00 +23°C° 0.3 mm 9 mps 755 mmHg 77%
10:00 +23°C° 0.3 mm 8 mps 756 mmHg 74%
11:00 +24°C° 0.3 mm 8 mps 756 mmHg 71%
12:00 +24°C° 0.7 mm 7 mps 756 mmHg 70%
13:00 +24°C° 0.7 mm 7 mps 757 mmHg 70%
14:00 +24°C° 0.7 mm 6 mps 757 mmHg 69%
15:00 +25°C° 0.4 mm 5 mps 757 mmHg 70%
16:00 +23°C° 0.4 mm 5 mps 758 mmHg 71%
17:00 +23°C° 0.4 mm 4 mps 758 mmHg 72%
18:00 +22°C° 0.2 mm 4 mps 758 mmHg 75%
19:00 +21°C° 0.2 mm 4 mps 758 mmHg 79%
20:00 +20°C° 0.2 mm 4 mps 759 mmHg 82%
21:00 +20°C° 0 mm 3 mps 759 mmHg 85%
22:00 +19°C° 0 mm 3 mps 759 mmHg 87%
23:00 +18°C° 0 mm 3 mps 759 mmHg 90%

19 June, Saturday

Time Temperature Precipitation Wind Pressure Humidity
00:00 +18°C° 0 mm 3 mps 759 mmHg 89%
01:00 +18°C° 0 mm 3 mps 759 mmHg 89%
02:00 +18°C° 0 mm 3 mps 759 mmHg 89%
03:00 +18°C° 0 mm 3 mps 759 mmHg 90%
04:00 +18°C° 0 mm 3 mps 759 mmHg 91%
05:00 +18°C° 0 mm 3 mps 759 mmHg 93%
06:00 +20°C° 0 mm 4 mps 759 mmHg 85%
07:00 +22°C° 0 mm 5 mps 759 mmHg 77%
08:00 +23°C° 0 mm 6 mps 759 mmHg 69%
09:00 +24°C° 0 mm 6 mps 758 mmHg 64%
10:00 +26°C° 0 mm 6 mps 758 mmHg 59%
11:00 +28°C° 0 mm 7 mps 758 mmHg 54%
12:00 +28°C° 0 mm 7 mps 758 mmHg 53%
13:00 +28°C° 0 mm 7 mps 758 mmHg 52%
14:00 +29°C° 0 mm 7 mps 757 mmHg 51%
15:00 +29°C° 0 mm 7 mps 757 mmHg 54%
16:00 +28°C° 0 mm 6 mps 757 mmHg 57%
17:00 +28°C° 0 mm 6 mps 757 mmHg 60%
18:00 +27°C° 0 mm 6 mps 757 mmHg 61%
19:00 +24°C° 0 mm 6 mps 758 mmHg 63%
20:00 +23°C° 0 mm 5 mps 758 mmHg 65%
21:00 +23°C° 0 mm 5 mps 758 mmHg 68%
22:00 +22°C° 0 mm 5 mps 758 mmHg 71%
23:00 +21°C° 0 mm 5 mps 758 mmHg 74%

20 June, Sunday

Time Temperature Precipitation Wind Pressure Humidity
00:00 +21°C° 0.1 mm 5 mps 758 mmHg 75%
01:00 +20°C° 0.1 mm 5 mps 757 mmHg 76%
02:00 +20°C° 0.1 mm 5 mps 757 mmHg 78%
03:00 +20°C° 0.2 mm 5 mps 757 mmHg 77%
04:00 +20°C° 0.2 mm 5 mps 757 mmHg 76%
05:00 +20°C° 0.2 mm 6 mps 757 mmHg 75%
06:00 +21°C° 0 mm 6 mps 757 mmHg 67%
07:00 +22°C° 0 mm 7 mps 757 mmHg 60%
08:00 +24°C° 0 mm 7 mps 757 mmHg 53%
09:00 +26°C° 0.2 mm 7 mps 757 mmHg 49%
10:00 +27°C° 0.2 mm 8 mps 756 mmHg 46%
11:00 +28°C° 0.2 mm 8 mps 756 mmHg 42%
12:00 +29°C° 0 mm 8 mps 756 mmHg 42%
13:00 +29°C° 0 mm 8 mps 756 mmHg 42%
14:00 +29°C° 0 mm 8 mps 756 mmHg 42%
15:00 +29°C° 0 mm 7 mps 756 mmHg 44%
16:00 +29°C° 0 mm 7 mps 756 mmHg 47%
17:00 +29°C° 0 mm 6 mps 755 mmHg 50%
18:00 +27°C° 0 mm 6 mps 755 mmHg 55%
19:00 +26°C° 0 mm 5 mps 755 mmHg 61%
20:00 +23°C° 0 mm 4 mps 755 mmHg 66%
21:00 +23°C° 0 mm 4 mps 755 mmHg 70%
22:00 +22°C° 0 mm 4 mps 755 mmHg 73%
23:00 +22°C° 0 mm 4 mps 755 mmHg 77%

21 June, Monday

Time Temperature Precipitation Wind Pressure Humidity
00:00 +21°C° 0 mm 4 mps 755 mmHg 79%
01:00 +21°C° 0 mm 3 mps 754 mmHg 81%
02:00 +20°C° 0 mm 3 mps 754 mmHg 82%
03:00 +20°C° 0 mm 3 mps 754 mmHg 83%
04:00 +20°C° 0 mm 3 mps 754 mmHg 83%
05:00 +20°C° 0 mm 3 mps 754 mmHg 84%
06:00 +22°C° 0 mm 3 mps 754 mmHg 78%
07:00 +25°C° 0 mm 3 mps 754 mmHg 73%
08:00 +26°C° 0 mm 3 mps 754 mmHg 67%
09:00 +28°C° 0 mm 3 mps 754 mmHg 64%
10:00 +29°C° 0 mm 3 mps 754 mmHg 60%
11:00 +31°C° 0 mm 3 mps 754 mmHg 56%
12:00 +31°C° 0 mm 3 mps 754 mmHg 54%
13:00 +33°C° 0 mm 4 mps 753 mmHg 51%
14:00 +34°C° 0 mm 4 mps 753 mmHg 48%
15:00 +33°C° 0 mm 4 mps 753 mmHg 49%
16:00 +33°C° 0 mm 4 mps 753 mmHg 49%
17:00 +33°C° 0 mm 4 mps 753 mmHg 49%
18:00 +30°C° 0 mm 4 mps 753 mmHg 54%
19:00 +28°C° 0 mm 3 mps 753 mmHg 59%
20:00 +26°C° 0 mm 3 mps 753 mmHg 65%
21:00 +26°C° 0 mm 3 mps 753 mmHg 66%
22:00 +25°C° 0 mm 3 mps 753 mmHg 68%
23:00 +24°C° 0 mm 3 mps 753 mmHg 70%
Show more

We Need Your Consent

Meteoprog and our Service Providers may store and access personal data such as cookies, device identifiers or other similar technologies on your device and process such data to personalise content and ads, as well as provide social media features and to analyse the traffic.

  • Store and/or access information on your device

    Cookies, device identifiers or other information can be stored or accessed on your device for the purposes indicated above.

  • Personalised ads and content, ad and content measurement, audience insights, and products development

    Ads and content can be personalised based on a profile. More data can be added to better personalise ads and content. Ad and content performance can be measured. Insights about the audience who saw the ads and content can be derived. Such data can be used to develop or improve user’s experience, systems and software.

By clicking ‘I Agree’ you will allow the use of indicated cookies, device identifiers, web beacons or other similar technologies. Your settings can be changed in the browser on your device.

For certain purposes, legitimate interests may be relied on, rather than consent. You can read more about this in our Privacy and Cookie Policy.